Wind_Speed
12 13 13 12 12 10 9 9 10 10 11 12 12 12 11 10 10 10 9 11 12 11 12 12 12 11 11 11 11 11 11 11 11 12 13 13 12 13 13 13 14 13 14 14 15 16 16 15 16 16 16 16 16 16 17 17 17 17 17 17 16 17 18 19 21 22 20 19 19 18 18 17 16 16 16 17 16 15 13 15 16 16 16 15 16
13 13 12 12 13 11 10 10 11 11 11 12 11 11 11 10 10 9 9 9 10 11 11 12 11 11 10 10 10 10 11 12 12 13 13 13 13 13 13 13 13 13 13 14 15 16 16 15 16 16 16 16 16 16 16 17 17 16 16 17 17 18 19 19 20 21 19 18 19 19 19 17 17 16 16 16 15 14 13 14 14 13 13 12 12
14 13 12 13 14 12 11 11 11 11 11 11 11 11 10 11 10 9 9 8 9 10 12 12 11 10 10 10 10 11 12 12 12 12 13 13 13 13 13 13 13 13 13 14 14 14 15 15 16 16 16 16 16 16 16 16 16 15 15 16 17 18 19 19 19 18 17 16 17 19 19 18 17 16 15 15 14 13 11 12 12 11 11 11 11
13 14 13 13 14 13 11 11 12 11 11 11 11 10 10 10 9 8 8 8 7 9 12 12 11 9 9 9 11 12 12 12 11 12 13 13 13 13 13 13 13 13 13 13 13 14 15 15 15 16 16 16 17 17 16 16 16 15 15 16 17 18 19 20 19 17 16 14 13 15 16 16 15 14 14 13 13 13 11 10 11 11 11 11 11
12 13 13 12 13 13 12 11 12 11 11 10 11 10 9 8 6 7 7 8 7 9 12 11 10 9 9 10 11 11 11 12 12 13 13 13 13 13 13 13 12 12 13 13 13 14 15 15 15 16 16 16 17 17 16 16 16 15 15 17 17 18 19 19 19 19 18 16 14 13 13 13 13 13 12 11 12 13 11 11 11 11 11 11 12
12 12 12 12 11 13 13 11 11 11 11 10 10 9 7 5 4 6 6 8 8 8 10 10 10 10 10 10 10 10 11 12 13 13 13 13 13 13 13 13 12 12 12 13 13 13 14 14 15 15 15 15 15 15 16 15 15 15 15 16 17 18 18 17 16 16 16 15 14 13 12 12 12 12 12 11 11 12 12 12 12 12 11 11 12
12 11 11 12 11 11 13 12 10 10 11 10 10 9 8 6 5 5 6 8 8 7 9 10 10 10 10 9 9 11 12 12 14 13 13 13 13 13 12 12 12 12 12 12 12 12 13 13 14 14 14 14 14 14 15 15 14 14 13 14 16 17 17 16 16 15 15 14 12 12 12 11 11 11 11 11 11 11 11 12 12 12 12 12 12
12 11 10 11 11 10 11 11 9 8 10 11 11 10 8 8 6 5 7 8 7 6 8 10 10 10 10 10 10 11 12 12 12 12 12 12 12 12 12 12 11 11 11 12 11 12 12 12 12 12 13 13 13 14 14 14 13 12 13 14 15 15 15 15 15 15 15 12 10 10 10 10 11 11 10 9 10 11 10 11 11 12 13 13 13
12 11 10 10 9 10 10 9 8 8 9 12 12 11 10 10 8 6 8 8 6 6 8 9 10 10 11 11 10 11 12 12 10 11 11 11 11 11 11 11 11 11 11 11 11 11 11 11 11 11 12 12 12 12 12 12 12 11 11 12 12 12 13 13 13 13 12 11 10 9 9 10 10 10 9 7 10 11 9 9 10 11 12 13 13
12 11 11 10 9 10 9 7 7 7 9 12 12 12 11 11 9 7 8 8 6 8 9 9 9 10 11 11 10 10 9 10 10 10 10 11 11 11 10 10 10 10 10 11 11 11 10 10 10 10 11 11 11 11 11 11 10 10 10 10 9 10 12 12 13 12 10 10 10 9 9 11 9 10 8 7 9 10 9 10 10 11 12 13 14
12 11 11 10 9 9 10 8 7 7 8 10 11 11 11 10 8 8 9 9 7 7 8 8 8 8 10 10 10 8 6 8 10 10 10 10 10 10 10 10 10 10 10 10 10 10 10 9 9 9 9 10 10 10 10 10 10 10 9 9 8 9 10 11 11 10 10 9 9 9 9 11 10 9 8 8 9 9 10 11 11 12 12 13 14
12 11 11 10 9 10 10 8 8 7 8 8 9 9 9 9 8 8 8 6 6 7 7 7 6 5 9 10 8 6 7 10 11 10 10 10 10 9 9 9 9 9 9 10 9 9 9 9 9 8 8 9 10 9 10 9 9 9 8 8 8 8 9 11 9 8 9 8 8 8 8 10 10 9 7 6 8 9 10 10 11 12 12 13 15
13 12 11 10 9 11 10 8 8 8 9 9 8 8 7 8 9 9 7 5 6 9 8 7 6 5 7 10 7 6 9 11 10 9 9 9 9 8 8 8 9 8 8 9 9 9 8 8 8 7 7 8 8 8 8 8 8 7 7 7 9 9 9 10 9 7 8 7 8 8 9 9 9 8 7 6 7 8 9 10 11 11 12 13 15
14 13 11 10 10 12 11 8 8 8 10 9 8 9 9 8 10 10 8 7 8 9 7 6 6 5 7 9 8 8 9 9 9 8 8 9 8 8 8 8 8 8 8 8 8 8 8 8 7 7 7 7 7 7 7 7 6 6 6 7 8 8 8 9 8 7 7 6 6 8 9 7 7 9 8 7 7 8 9 10 10 11 12 13 14
13 13 12 11 10 12 11 9 9 9 10 10 9 9 10 9 10 12 9 8 8 9 8 6 5 6 8 8 7 7 7 7 8 8 7 8 8 8 8 7 7 7 8 8 8 7 7 7 6 6 6 6 5 5 5 5 5 5 6 7 9 8 9 9 7 7 6 5 5 6 7 6 7 9 8 7 7 8 8 9 10 11 12 13 13
12 12 12 11 11 12 11 10 11 10 10 11 10 10 10 10 11 12 11 9 8 9 9 6 6 6 6 7 7 7 6 6 6 7 7 7 8 8 7 7 7 6 7 7 7 7 6 6 5 5 5 5 4 4 4 4 4 4 5 6 9 9 10 10 7 6 6 4 4 5 5 5 7 9 7 5 6 8 8 8 9 10 12 12 11
11 12 12 12 11 11 11 11 12 11 10 10 10 10 11 10 10 12 12 10 8 9 10 7 6 5 6 7 7 7 6 6 6 6 6 6 7 7 7 7 6 5 6 6 7 6 6 5 4 4 4 4 4 3 3 3 3 4 5 5 8 10 10 10 8 6 6 4 4 4 4 4 7 8 6 4 5 6 7 8 9 11 11 10 9
10 12 13 13 12 12 12 12 12 12 11 10 9 10 12 11 10 12 12 10 9 10 11 10 8 7 7 8 7 7 7 8 8 7 7 6 6 6 6 6 5 5 5 6 6 5 5 4 4 3 3 4 3 3 3 2 3 4 5 5 7 10 11 11 8 6 6 4 3 2 2 4 8 8 5 5 5 5 6 7 9 10 10 9 8
10 12 13 13 13 13 12 12 12 12 11 10 10 11 12 12 12 12 12 12 11 11 12 12 11 10 9 9 8 8 7 7 8 8 8 7 6 6 7 6 5 5 5 5 5 5 4 4 4 3 3 4 3 2 2 2 3 3 5 6 7 9 10 9 7 5 5 3 3 2 2 3 8 8 4 4 3 4 5 6 8 9 9 8 7
10 11 13 13 13 13 13 12 12 13 12 11 11 11 11 12 14 13 12 13 13 13 12 12 13 12 12 11 11 9 8 7 7 8 8 8 7 8 8 7 5 5 6 6 5 4 4 4 4 4 3 3 2 1 2 2 3 3 5 7 7 8 9 7 5 5 5 3 3 2 2 2 7 7 3 2 1 4 5 6 8 8 8 8 7
11 12 13 13 13 14 14 13 12 13 13 12 12 12 12 11 13 14 14 14 14 14 13 12 13 13 13 12 11 9 9 8 8 9 10 9 9 9 9 8 7 6 6 6 5 4 4 4 4 5 4 4 2 1 1 2 2 2 5 7 7 7 6 5 4 4 4 3 2 2 3 2 6 7 4 2 1 3 5 6 8 7 7 8 7
12 12 13 14 14 14 15 14 13 13 13 13 12 12 13 12 12 14 14 14 14 15 14 13 13 14 14 13 10 9 10 9 9 11 10 10 10 11 10 9 8 7 7 6 5 5 5 5 5 6 6 5 2 1 1 1 1 3 6 7 7 5 4 5 4 3 2 2 2 3 3 1 5 7 4 2 2 3 5 7 8 7 6 7 7
12 12 13 14 15 15 15 15 14 14 14 13 12 12 12 12 12 13 14 14 15 15 13 12 13 14 15 13 10 10 10 9 12 12 10 11 11 11 11 10 9 8 8 7 6 7 7 7 6 6 6 5 2 1 1 1 1 3 5 5 6 4 3 4 3 3 1 1 2 3 3 1 5 8 6 3 4 4 6 8 7 7 6 5 7
13 13 13 14 15 15 15 16 15 14 15 15 13 13 13 12 12 13 13 13 14 15 14 13 13 13 13 13 12 11 11 11 14 15 13 13 11 11 12 11 10 9 9 8 7 7 8 8 6 6 6 5 3 3 2 1 2 3 3 3 3 3 2 2 2 2 1 1 3 2 1 1 5 9 6 4 5 5 7 7 6 7 5 5 7
12 13 13 14 16 16 15 15 16 15 15 15 14 14 14 13 13 14 13 13 14 13 14 14 14 14 14 13 13 12 13 13 14 15 14 12 10 11 12 12 10 9 10 8 6 7 7 7 7 7 6 6 5 4 3 2 2 2 2 2 2 2 1 2 1 1 1 1 5 4 1 0 5 9 7 5 5 5 6 6 6 7 6 7 8
12 13 14 15 16 17 17 16 16 16 16 16 15 14 14 14 14 14 14 14 14 14 14 14 15 16 16 15 14 13 14 13 12 12 12 11 11 10 10 10 8 9 10 8 7 7 6 6 7 7 6 6 6 5 3 3 2 3 3 2 2 2 2 2 1 2 1 2 6 5 3 1 4 8 8 6 5 5 6 6 7 7 8 9 9
12 13 14 14 15 17 17 17 17 17 17 16 16 14 15 15 14 14 15 15 14 15 15 15 15 16 17 16 15 15 14 14 13 12 11 12 12 10 10 10 9 9 9 7 9 9 8 7 7 7 7 7 6 6 4 4 3 3 4 3 3 3 3 3 2 2 2 3 6 6 4 3 3 7 8 6 5 6 7 7 7 7 9 9 9
13 13 14 14 15 17 18 18 18 18 18 17 17 16 15 15 15 15 15 16 15 15 15 15 14 15 16 16 16 15 14 13 13 13 12 12 12 11 11 11 10 9 9 9 10 9 9 8 7 8 8 8 7 7 6 5 5 5 5 5 4 4 4 4 4 4 3 3 5 6 5 5 4 5 8 6 4 7 8 8 7 8 9 9 9
14 14 14 14 15 16 18 19 19 19 18 18 18 18 16 15 15 15 16 17 17 15 15 15 15 15 15 16 16 15 13 13 13 13 12 12 11 11 11 11 11 10 11 11 11 10 9 8 8 8 9 9 9 8 7 6 6 6 6 6 6 5 5 5 5 5 4 4 5 6 7 6 5 6 8 8 6 8 9 10 9 9 9 9 9
15 15 15 15 15 16 18 19 20 20 19 18 18 18 18 18 17 16 17 18 18 17 15 15 15 15 15 16 16 15 14 12 12 12 12 11 11 11 11 11 11 11 11 11 11 10 9 8 8 9 9 10 10 9 9 7 7 7 7 7 7 7 7 6 6 6 5 5 5 6 7 7 6 7 9 11 9 9 10 11 10 10 10 9 9
15 16 16 16 16 17 18 19 20 20 20 20 19 19 18 19 18 17 17 16 17 18 17 16 16 16 15 15 16 16 14 13 12 12 12 11 11 11 12 11 11 11 12 11 10 9 9 9 9 9 10 10 10 10 9 8 8 8 8 9 9 8 8 8 7 7 6 6 6 6 7 7 7 7 9 13 12 10 11 11 11 10 10 9 9
17 18 17 17 17 18 19 19 20 21 21 21 21 20 19 19 19 18 19 17 16 17 17 17 17 17 16 16 16 16 15 14 14 13 12 12 12 12 12 12 12 12 12 12 10 10 11 11 11 11 11 10 10 10 10 9 9 9 9 9 9 9 9 9 9 9 8 7 6 6 6 6 6 6 8 13 15 12 12 12 11 10 10 10 9
17 17 17 18 18 19 19 20 20 21 23 22 21 21 20 19 19 19 20 19 17 17 17 18 18 17 17 18 18 16 16 15 14 14 13 13 12 12 12 12 12 12 11 12 13 14 14 13 13 15 13 12 11 11 11 10 10 10 10 10 10 10 10 10 9 10 10 9 8 7 7 7 6 7 7 11 16 12 12 13 11 11 11 11 11
15 15 18 20 19 19 19 20 21 22 23 23 22 21 20 19 19 20 19 19 20 18 18 19 19 18 16 17 19 18 16 15 14 14 14 14 13 13 14 13 12 12 11 12 14 15 13 12 13 15 15 14 13 13 12 11 11 11 11 10 10 10 10 11 10 11 11 11 10 9 8 8 7 6 6 9 13 12 14 14 12 13 12 11 12
16 16 19 20 20 20 20 20 22 24 23 24 23 22 21 19 19 18 18 19 20 20 19 19 19 19 16 17 20 19 17 16 16 15 14 15 15 14 14 14 13 12 13 13 12 12 12 13 13 14 14 14 14 14 14 12 12 12 12 11 11 11 11 11 11 11 11 12 11 10 10 10 9 8 6 7 10 12 14 14 13 14 12 12 13
18 17 17 19 20 21 21 21 22 24 24 25 25 23 21 21 20 18 19 19 20 21 19 19 19 18 18 18 20 20 18 17 17 17 16 16 15 15 15 15 14 14 14 14 13 13 13 13 14 14 14 14 15 15 14 13 12 12 12 12 12 12 12 12 11 11 11 12 13 13 12 11 10 10 9 8 9 11 13 14 15 15 14 15 15
19 18 17 18 21 21 23 23 23 24 25 24 25 24 22 21 21 20 19 19 20 21 19 19 19 18 19 21 20 20 20 18 17 18 18 18 17 16 15 15 15 15 15 14 15 15 14 14 14 15 15 14 15 16 15 14 13 13 13 13 13 12 12 13 12 12 12 12 14 15 14 13 12 11 10 10 10 11 13 17 18 17 17 19 17
18 19 19 19 20 21 23 24 24 23 23 24 24 24 22 20 20 20 20 21 21 20 19 19 20 20 22 22 20 21 21 19 18 17 18 20 19 18 16 16 16 16 16 16 16 15 15 15 14 15 17 16 15 15 15 14 13 13 14 14 14 13 13 13 13 13 13 14 15 16 16 14 15 15 13 11 11 12 13 17 20 20 20 21 20
18 19 20 20 19 19 21 24 25 23 21 22 23 22 21 20 20 21 21 23 23 22 21 20 19 21 22 21 20 21 21 20 19 18 18 20 20 19 18 17 17 17 17 16 16 17 17 16 15 14 16 18 17 15 14 14 13 14 14 14 14 15 15 14 14 14 14 15 16 16 17 16 17 18 16 14 13 14 14 17 20 22 22 22 22
18 18 20 20 20 20 20 22 24 24 21 20 21 22 21 20 21 21 22 24 24 25 25 22 19 20 21 20 20 21 21 21 22 19 18 20 20 20 20 19 19 18 18 18 18 18 18 18 17 16 15 17 18 17 15 13 13 14 15 15 15 15 16 15 15 15 15 16 17 17 17 18 20 19 19 18 17 15 17 18 19 21 22 23 24
17 18 19 21 23 23 22 22 22 22 22 22 22 24 24 23 22 23 23 23 23 25 26 24 21 21 21 21 21 22 22 23 23 20 18 20 21 20 21 21 21 21 21 21 20 19 19 19 17 17 17 17 17 18 17 14 13 14 14 15 17 17 17 17 17 17 17 17 17 17 18 19 21 22 20 21 21 20 20 20 19 20 20 21 23
18 20 21 22 24 24 23 23 22 22 25 25 24 25 27 27 26 25 24 23 23 26 26 25 23 22 22 22 21 22 24 24 24 21 18 20 22 22 23 23 23 23 22 21 21 20 20 20 18 18 18 19 17 17 19 16 13 14 13 12 13 16 18 19 17 18 19 19 19 19 20 19 20 23 22 21 23 24 24 22 21 21 21 21 23
20 21 22 22 22 22 23 23 23 23 26 27 27 26 26 28 28 26 25 23 23 25 25 24 22 22 22 22 20 21 23 24 24 22 19 21 24 24 24 23 23 24 22 21 21 22 22 22 21 19 17 18 18 17 19 19 15 13 12 9 7 8 12 15 17 19 20 21 21 20 21 21 19 22 25 24 24 26 26 26 25 24 24 24 25
21 21 21 21 21 22 23 24 25 26 27 28 29 27 23 24 25 22 21 20 19 20 21 22 23 24 23 23 22 21 22 22 23 25 23 22 25 25 23 22 22 23 22 21 21 23 24 24 24 22 19 17 17 19 21 21 18 14 9 7 7 7 6 8 13 19 21 20 21 22 21 21 20 22 27 28 26 27 28 29 29 29 28 28 27
24 23 22 21 22 24 25 26 28 28 27 28 30 28 23 20 20 18 17 18 17 18 19 21 24 25 26 26 26 24 22 22 23 27 26 24 24 24 24 23 22 23 23 22 22 23 24 24 24 24 23 20 17 17 20 23 23 20 14 8 6 6 6 7 9 11 18 20 20 22 22 21 21 24 29 30 29 29 29 30 32 32 32 31 30
21 24 25 24 24 24 24 26 29 28 27 28 29 29 25 22 21 21 20 20 20 21 24 25 26 29 31 29 28 27 26 25 25 27 28 26 24 24 25 25 23 24 24 23 22 21 23 25 26 25 26 26 21 16 17 22 24 25 24 18 13 8 5 7 7 4 11 17 18 20 23 23 21 23 28 30 31 32 32 32 33 34 35 34 33
17 20 24 24 24 23 22 24 27 27 26 28 29 29 27 25 25 25 25 24 23 24 26 27 26 28 30 29 29 30 30 29 27 27 28 28 25 25 26 26 25 25 25 25 24 22 21 24 26 26 26 26 25 20 17 19 21 23 26 25 23 20 14 10 7 4 5 9 14 17 20 22 22 22 26 30 31 32 33 33 34 35 36 36 35
15 17 20 23 23 23 22 22 23 24 25 27 29 31 30 28 27 26 25 25 25 22 21 23 23 22 23 26 27 28 29 31 30 29 28 28 27 26 25 26 27 26 26 26 25 23 21 22 24 26 26 25 26 26 22 19 20 20 23 24 24 25 22 19 17 13 7 4 7 11 15 20 23 23 24 28 32 33 34 34 35 35 37 37 37
15 15 16 19 21 21 21 21 22 22 22 25 28 32 33 29 26 26 26 26 26 23 19 19 20 20 20 22 24 25 26 29 31 31 30 29 29 28 26 26 27 27 28 27 25 24 23 23 23 24 26 26 27 28 26 24 22 20 20 21 22 23 23 22 23 19 13 9 7 6 9 14 18 23 26 26 29 33 34 34 35 36 36 37 37
13 13 14 16 17 18 19 21 23 23 22 24 26 30 34 31 28 27 27 26 24 22 20 19 20 20 21 22 22 23 23 26 29 31 32 31 31 30 28 27 27 27 29 28 27 26 26 26 25 25 26 26 26 27 28 28 26 23 21 21 20 20 19 18 20 20 16 14 11 8 9 11 11 20 29 31 31 32 33 34 34 35 36 36 37
12 14 15 16 16 16 18 20 22 23 22 23 24 28 31 33 32 29 28 27 24 21 21 22 21 20 21 21 21 21 22 23 25 27 30 30 30 31 30 28 26 26 28 29 28 27 26 27 27 27 28 27 25 26 28 30 29 26 25 23 21 21 19 17 18 20 17 13 10 9 12 14 13 17 26 30 33 34 33 33 34 35 37 37 37
Wind_Direction
141 134 140 146 135 132 128 128 131 133 134 133 132 129 126 123 115 103 92 92 96 96 99 98 97 98 97 95 89 88 88 88 86 87 90 90 86 83 80 76 76 78 80 83 83 83 85 88 91 92 93 91 89 88 87 87 86 84 84 83 87 95 98 100 94 86 82 79 78 76 73 72 73 72 72 69 64 65 75 80 73 69 68 68 69
146 140 140 143 138 136 134 131 132 134 134 134 133 130 127 122 114 104 97 98 92 87 96 101 98 97 97 96 94 97 92 86 83 80 87 92 87 84 82 80 79 80 86 90 87 84 86 90 92 94 93 91 90 89 88 87 86 86 89 92 97 101 100 98 93 88 88 84 78 75 73 73 72 72 72 66 61 68 77 82 80 75 73 70 75
147 142 142 143 140 141 137 134 134 135 136 137 134 129 127 123 117 108 104 102 89 83 95 103 101 98 96 95 96 95 87 83 82 79 86 92 89 86 85 84 83 85 92 94 90 86 88 92 94 94 93 92 91 90 89 89 88 88 93 101 103 103 102 97 89 89 94 92 82 72 71 73 71 70 69 62 58 62 64 69 72 72 75 69 68
149 142 142 143 142 144 140 140 137 135 139 137 132 131 130 124 117 105 102 105 98 92 99 103 101 98 94 91 89 87 83 82 82 82 90 95 94 92 89 87 87 90 95 95 93 91 91 93 93 93 93 92 90 89 89 90 90 89 97 105 105 104 101 92 86 85 86 86 81 71 71 75 71 68 64 59 52 49 53 61 60 61 64 60 56
151 142 139 139 143 147 144 146 143 138 138 133 132 134 132 126 111 93 94 110 112 106 106 106 104 97 90 88 85 84 81 82 86 88 93 97 97 96 93 92 91 92 96 96 96 96 96 94 93 93 92 91 90 89 89 89 89 89 97 105 105 106 100 90 86 84 83 80 75 70 72 73 70 66 60 56 47 41 50 59 57 59 61 57 55
150 143 140 141 144 150 148 147 146 142 139 138 139 140 139 133 109 90 93 112 115 115 112 109 106 100 95 93 90 89 87 89 95 95 96 99 101 100 97 97 96 96 98 99 99 98 96 93 94 94 92 92 92 91 90 89 89 88 92 101 105 107 98 86 82 79 78 76 71 69 69 69 69 66 59 56 48 40 46 56 58 59 60 60 59
149 146 148 146 147 157 155 152 150 148 151 151 147 146 144 139 130 110 100 108 117 122 116 110 105 102 100 99 99 101 98 93 93 95 99 101 102 103 102 102 100 98 100 101 103 100 95 93 93 95 94 94 94 93 91 89 89 89 91 101 107 105 95 84 79 71 67 70 72 71 70 71 72 69 58 52 47 44 47 52 58 62 61 63 64
150 152 155 149 153 168 159 159 160 157 163 161 154 150 146 142 146 133 108 112 129 133 126 116 108 104 101 103 103 105 105 96 92 96 101 105 106 106 106 105 102 98 101 102 103 102 100 97 94 94 96 96 96 95 93 92 91 93 99 105 107 103 96 87 79 71 67 67 72 70 71 74 73 67 55 49 45 48 56 54 55 62 64 67 70
154 155 157 148 160 177 162 162 163 160 168 167 162 157 152 148 145 131 117 122 124 119 125 119 115 114 107 105 100 100 101 96 98 103 105 110 110 109 108 108 105 100 101 103 103 104 104 101 97 96 98 98 97 97 96 95 93 93 99 101 102 99 90 76 65 64 67 69 70 69 72 73 69 63 51 40 44 47 61 68 62 66 68 73 78
157 158 158 151 170 182 166 164 162 160 169 173 172 164 158 151 143 128 125 130 117 103 108 109 116 122 117 111 108 109 101 98 105 106 109 113 113 113 112 111 108 105 104 103 104 104 105 105 102 99 99 101 100 100 100 98 95 95 96 94 95 94 84 70 61 61 68 72 69 65 68 73 67 61 47 23 40 51 64 77 77 77 79 80 84
159 161 159 157 178 183 170 167 163 160 162 173 177 174 168 159 146 131 134 133 126 111 101 106 116 122 123 120 121 125 110 110 115 113 116 118 118 116 113 113 110 109 109 104 105 107 109 108 106 104 103 105 104 104 102 99 97 95 92 87 86 87 80 69 65 65 68 67 65 60 60 70 66 59 53 31 41 58 69 79 81 83 86 87 89
162 161 161 165 184 184 175 169 163 160 149 154 165 174 177 170 149 141 152 142 142 134 120 131 138 136 131 130 132 122 106 114 120 121 122 118 117 117 117 116 113 113 114 112 112 113 114 114 111 110 108 109 108 105 101 98 95 90 85 77 69 73 75 68 65 67 68 64 60 58 58 64 62 58 60 52 51 64 76 83 86 87 88 90 92
163 162 163 167 186 188 182 170 165 163 150 151 159 160 161 166 151 149 163 148 146 140 145 169 171 176 146 140 140 119 111 117 123 124 119 118 119 118 118 118 118 119 121 122 122 121 118 119 119 117 115 115 111 105 100 95 90 84 76 64 59 65 69 63 59 63 66 68 58 54 61 62 62 57 45 56 66 73 83 85 88 90 91 94 95
165 165 166 168 182 190 187 173 171 167 159 164 163 157 152 160 153 150 152 146 147 140 160 181 177 192 162 147 140 123 118 124 135 135 125 129 134 125 122 127 132 132 133 134 129 128 125 124 127 128 124 120 118 109 101 94 86 78 65 52 52 63 68 57 53 62 64 67 57 51 58 60 72 62 36 51 76 81 88 90 93 95 97 99 95
169 169 170 170 176 187 188 175 177 171 168 171 166 165 159 161 163 156 152 159 158 146 166 178 164 171 157 147 137 129 124 131 144 144 138 142 148 139 136 140 141 142 141 141 137 136 133 130 129 133 131 121 119 112 104 94 84 70 56 44 41 58 79 68 51 57 61 67 62 56 58 60 80 74 49 54 76 84 91 95 98 101 103 101 94
173 174 173 173 173 181 185 179 181 176 175 178 176 180 168 168 176 166 158 165 165 154 168 176 153 146 147 148 140 141 139 146 153 150 146 147 155 152 157 159 146 148 151 150 145 141 139 135 135 136 134 125 121 115 105 90 81 60 48 43 35 53 81 75 53 49 53 63 65 55 49 62 80 77 66 60 76 88 94 100 103 107 105 99 90
175 179 179 179 177 178 182 180 184 183 184 186 187 190 178 178 184 177 171 168 169 165 170 179 169 156 159 161 154 156 157 164 164 161 162 157 163 162 170 175 158 157 164 163 149 140 143 142 146 142 138 137 131 118 109 86 76 57 51 43 35 53 76 68 52 48 48 55 68 48 36 80 91 80 71 63 69 86 96 106 110 111 106 96 85
180 186 187 186 183 180 179 181 185 184 188 193 193 191 185 185 185 184 184 176 177 181 179 186 192 186 183 182 178 173 172 177 173 172 179 180 188 187 182 185 186 179 170 170 162 153 152 149 157 152 144 145 139 123 111 91 75 61 53 38 42 58 64 55 46 45 43 55 66 23 17 91 101 88 84 77 68 79 97 114 118 114 106 94 83
190 193 193 191 191 187 182 185 185 185 188 191 191 192 191 191 191 187 189 187 187 193 191 197 204 201 198 201 200 193 190 188 185 187 191 197 207 211 206 206 215 203 188 190 183 166 161 159 164 172 159 152 150 128 103 93 78 66 46 35 50 54 46 42 39 38 34 56 58 340 300 96 107 101 98 93 93 105 108 126 121 113 106 93 85
198 198 198 197 197 194 190 190 187 188 190 190 191 196 198 196 198 193 190 194 199 205 202 203 207 206 202 203 207 205 209 209 206 209 209 216 217 213 216 223 228 219 219 224 210 178 172 172 176 193 180 170 173 131 98 96 87 71 44 40 52 44 34 31 28 31 34 58 36 314 243 141 121 113 117 130 136 122 121 134 118 109 106 96 90
201 202 203 201 202 201 197 195 190 192 192 193 193 196 208 204 200 199 196 200 207 213 214 212 209 207 204 203 207 203 210 219 219 223 222 227 226 216 217 228 233 231 239 241 230 208 190 180 193 210 201 198 197 109 71 99 105 64 39 42 48 39 31 26 24 27 43 65 353 268 217 173 135 122 126 165 165 124 135 136 118 110 104 99 102
201 205 207 205 205 204 203 200 196 197 193 197 195 195 212 210 199 201 203 207 213 216 220 222 214 211 210 206 207 200 203 208 210 221 224 226 226 221 224 231 237 238 243 247 241 234 219 208 212 219 213 211 188 102 12 46 109 43 40 43 41 33 29 22 26 29 44 74 331 261 221 205 148 132 129 149 139 140 142 130 117 112 105 105 117
201 204 207 207 207 206 205 205 203 201 197 198 200 198 207 206 199 202 203 207 217 220 219 220 216 214 216 212 210 208 207 206 212 218 215 219 223 223 228 233 238 241 244 252 251 243 237 237 238 230 219 208 171 153 272 306 311 9 26 35 31 20 19 14 22 25 19 106 319 267 235 244 153 145 146 150 139 147 142 131 120 118 116 117 130
202 203 206 208 208 208 206 207 207 204 202 201 204 202 203 201 200 203 203 205 213 216 212 213 212 212 215 210 211 215 213 214 223 224 216 222 232 229 229 234 242 249 250 255 258 253 246 247 245 231 218 202 190 209 231 257 276 327 344 353 9 3 3 357 6 15 359 267 286 272 262 278 162 155 151 149 147 154 153 142 129 130 134 137 144
201 203 206 208 208 209 206 207 208 207 206 204 207 208 206 204 202 204 205 206 208 209 209 212 213 211 210 208 211 216 215 218 230 233 224 228 238 236 234 237 243 251 254 251 247 256 251 246 242 227 211 201 207 214 223 242 255 276 293 292 315 333 328 323 337 336 355 274 278 275 268 317 170 167 153 152 164 164 167 153 134 138 145 148 154
200 203 206 209 208 209 207 206 207 209 210 208 209 211 211 210 207 206 206 207 207 208 209 211 214 213 211 210 210 214 216 218 226 230 224 223 227 231 234 235 232 238 250 240 221 237 241 234 233 221 207 206 208 205 217 237 248 253 255 255 271 285 286 288 289 295 296 248 273 273 242 260 178 172 156 159 183 180 172 151 137 143 151 151 155
201 204 206 209 209 210 209 207 206 207 210 212 213 212 213 214 213 211 209 210 209 211 211 210 212 213 213 213 211 213 215 215 219 221 218 217 220 224 227 227 225 223 235 231 217 225 228 224 221 213 207 206 206 205 213 227 237 242 240 242 250 260 264 265 256 263 267 247 273 274 246 245 206 178 163 162 187 189 174 157 150 151 155 155 153
202 204 205 208 209 210 210 209 209 208 209 210 213 215 216 215 217 216 214 214 213 214 213 211 212 212 213 213 213 215 216 216 217 217 217 217 219 222 223 225 229 224 224 227 222 220 223 223 217 211 208 208 209 211 215 224 232 235 235 237 243 251 251 254 250 247 251 243 265 275 262 249 231 202 188 178 189 200 177 157 154 152 160 159 153
204 204 203 208 209 207 210 212 213 212 211 210 212 216 217 218 219 218 218 218 217 218 218 217 216 216 216 216 216 217 217 218 218 218 217 217 219 220 220 223 226 224 220 222 222 221 222 222 216 212 210 212 213 212 215 223 229 234 238 237 240 247 246 247 245 242 247 236 244 268 273 259 242 228 211 199 205 217 193 165 157 155 163 163 156
206 204 203 206 206 205 208 211 214 214 213 212 213 214 215 217 219 219 220 221 221 222 223 223 222 222 222 221 220 219 220 219 218 218 216 216 217 217 219 220 222 221 218 218 224 225 220 217 214 211 210 212 214 212 214 222 229 234 238 239 241 245 244 246 243 240 241 238 238 259 278 272 253 244 225 212 214 223 202 176 167 161 165 167 163
206 205 204 204 203 204 205 208 211 213 214 214 216 216 215 217 218 219 220 221 221 222 222 224 224 224 224 223 224 223 222 223 222 219 218 217 217 218 219 220 222 220 216 217 221 221 215 213 209 209 212 213 214 214 214 222 229 234 239 239 241 243 243 242 241 239 236 237 232 244 275 281 260 252 236 220 217 220 200 179 172 165 167 173 172
207 206 204 202 202 204 205 206 208 211 214 216 217 219 219 220 218 219 219 219 220 221 222 222 222 222 222 221 221 224 224 225 225 223 221 220 219 221 221 221 223 220 219 218 213 216 222 219 211 209 211 212 214 214 214 222 230 236 240 239 239 240 241 240 240 238 235 236 232 232 252 270 274 274 251 220 215 218 198 184 181 172 173 180 182
210 208 204 202 202 203 205 205 205 207 211 213 217 219 220 221 221 221 221 220 220 222 223 224 224 223 222 221 218 220 223 224 225 225 223 223 223 223 222 222 222 220 219 217 216 225 233 228 220 218 215 211 214 215 214 222 230 236 239 237 237 236 237 239 239 236 233 233 236 235 234 250 274 289 277 224 214 217 197 187 191 185 182 188 193
211 208 206 205 203 201 202 203 204 205 207 211 213 217 220 221 223 223 223 222 221 221 224 224 225 224 224 225 222 219 220 223 224 224 223 224 226 225 224 223 221 219 214 215 223 229 231 223 218 220 218 212 213 215 216 222 229 234 237 234 233 234 237 239 239 239 235 232 235 237 234 238 246 257 278 240 218 215 201 195 197 193 188 193 198
211 208 209 208 205 203 203 204 207 206 205 208 210 213 218 221 223 223 223 223 223 222 224 223 222 222 222 224 227 222 219 220 220 222 224 225 227 227 226 222 219 217 213 215 222 222 219 215 211 211 211 211 212 215 217 223 229 232 234 232 231 233 237 239 240 240 235 232 232 234 234 234 233 235 253 245 228 221 210 204 201 195 193 203 206
213 212 211 209 207 208 211 209 210 212 208 207 208 209 212 218 221 222 222 223 224 224 223 223 222 221 220 223 226 223 219 219 217 219 223 224 226 227 226 223 218 216 214 215 216 215 214 214 212 209 207 209 210 214 218 223 229 233 235 234 234 234 236 240 240 239 236 231 231 232 232 230 228 231 232 227 227 226 215 204 202 203 205 209 210
215 215 211 210 211 211 214 214 214 217 213 207 208 208 209 213 218 222 223 222 224 224 224 224 224 222 222 223 224 223 221 220 217 217 221 223 224 226 225 222 219 217 216 215 216 215 214 214 213 210 209 209 209 213 217 222 227 231 234 233 233 233 236 241 241 240 237 233 233 230 229 228 224 225 224 217 218 225 219 208 208 217 220 215 211
218 218 215 214 216 212 214 219 219 215 211 209 208 209 209 211 217 222 224 225 225 224 223 224 225 225 224 223 222 223 223 221 219 216 219 222 223 224 225 222 219 218 218 217 218 216 215 214 213 211 210 209 211 213 217 222 226 229 234 235 233 233 237 241 242 241 237 233 233 228 228 229 224 223 222 215 217 222 221 217 219 228 228 224 221
219 217 217 216 217 214 214 222 223 215 208 208 208 208 209 211 218 221 223 226 227 225 223 222 224 225 225 223 221 223 223 222 220 216 217 219 221 223 224 223 219 218 219 218 218 217 215 214 213 212 211 212 214 215 218 222 225 229 233 235 235 236 239 240 241 240 237 234 232 230 229 227 225 229 227 217 217 220 222 222 224 229 232 231 230
219 217 217 215 215 216 213 218 223 216 208 205 204 204 205 209 216 220 222 224 225 226 224 222 222 225 226 224 221 221 223 224 221 217 217 217 219 221 222 222 220 219 219 218 218 216 213 212 212 212 211 213 216 217 219 221 228 234 235 238 240 241 240 240 241 240 238 235 233 230 226 225 228 236 233 222 217 217 218 223 224 226 230 233 234
217 216 214 213 217 219 214 215 218 211 207 206 203 202 203 205 208 214 219 220 221 224 225 225 224 224 225 224 223 223 222 222 221 218 215 216 218 220 220 220 219 218 219 219 219 217 214 211 210 212 213 213 214 215 215 217 228 235 238 241 241 243 241 237 239 239 236 235 233 230 228 230 232 236 237 228 222 220 218 222 225 223 224 229 234
215 216 215 216 222 221 215 216 214 208 209 209 206 206 207 208 208 209 211 213 214 217 220 221 222 223 224 225 224 224 222 219 220 218 213 215 216 217 218 218 217 217 219 220 220 218 214 209 206 209 213 215 216 214 210 209 220 228 235 243 239 238 234 228 231 236 235 233 230 229 231 233 232 232 235 232 228 229 229 227 226 223 222 225 232
217 219 219 219 221 219 216 216 213 211 214 213 211 212 212 215 215 212 210 209 211 214 217 217 218 220 222 224 223 222 222 218 218 217 213 213 215 214 216 217 216 215 216 217 218 216 212 208 206 206 209 214 218 217 210 206 209 217 229 242 241 240 227 213 221 231 231 231 229 228 231 232 232 230 231 234 235 235 235 233 230 228 226 226 230
219 219 218 216 217 218 217 217 217 217 217 218 219 217 215 218 218 215 211 208 212 214 215 218 219 220 221 223 222 221 220 219 216 216 216 216 214 214 216 217 217 215 214 214 215 213 211 209 207 206 207 210 213 216 214 207 202 202 213 229 231 248 241 206 218 226 221 224 226 225 230 230 229 229 231 234 238 239 238 237 235 235 234 233 234
222 224 222 218 220 223 222 225 228 225 221 224 226 220 215 215 212 210 210 210 215 213 211 217 220 219 221 221 220 218 216 217 217 217 219 219 216 217 219 220 220 218 217 217 216 214 212 210 207 207 208 209 210 210 212 211 206 207 215 224 217 229 244 229 234 220 202 208 218 218 225 228 225 230 235 237 238 240 241 240 239 239 239 239 239
220 230 233 229 227 228 226 228 232 229 224 227 229 222 213 208 204 203 206 208 212 212 212 214 216 219 224 223 220 218 217 216 215 216 218 219 219 219 221 222 222 223 222 222 222 218 214 212 210 209 209 213 215 211 210 210 210 214 220 229 235 237 247 234 236 209 187 203 214 215 220 223 223 230 237 239 240 240 242 243 242 242 241 242 242
221 231 239 237 230 228 225 225 230 231 228 228 228 223 212 206 205 206 208 209 212 215 216 215 216 222 226 223 219 219 219 218 216 214 215 218 220 220 221 223 223 225 225 224 225 222 217 217 214 212 212 214 215 215 214 205 205 216 222 229 239 244 254 251 242 250 219 211 210 213 219 220 222 229 235 239 240 240 242 243 244 243 243 243 243
235 232 234 238 234 229 226 223 227 231 229 228 227 223 217 209 207 210 214 217 219 221 219 218 220 220 219 218 217 217 218 219 218 216 214 215 218 219 220 223 224 226 226 225 226 223 220 222 219 216 216 213 211 215 219 209 201 207 215 224 234 239 244 248 249 253 262 247 210 210 218 220 223 228 232 238 239 239 241 242 244 244 244 244 244
248 236 228 238 242 236 231 228 228 228 225 227 226 225 224 216 209 212 217 221 224 226 223 222 223 219 215 213 213 212 213 216 219 220 219 216 215 217 218 220 224 226 226 226 227 225 223 224 222 219 218 216 215 217 220 217 210 203 203 211 223 233 236 240 244 244 247 253 240 214 203 207 223 229 227 233 237 238 239 242 244 245 244 244 244
250 240 232 239 240 236 234 232 232 230 225 224 222 224 227 222 214 214 217 220 221 222 222 223 221 216 215 213 210 210 209 212 216 219 222 218 215 216 215 216 220 223 224 225 227 227 226 227 226 225 223 221 219 220 221 222 221 215 206 201 206 217 226 232 234 233 236 242 243 249 220 192 211 231 227 228 237 240 238 240 243 245 244 244 244
246 243 244 244 239 234 235 234 232 231 229 224 218 220 224 224 222 218 217 219 217 215 217 220 220 215 215 212 209 209 210 211 213 215 217 217 216 217 215 214 216 219 222 224 226 227 227 229 229 228 229 226 223 223 225 226 225 223 218 211 205 206 212 219 219 217 224 232 236 252 244 224 221 232 233 234 241 244 240 238 240 244 246 245 244
Height
835 835 836 836 837 837 838 838 839 839 839 840 840 841 841 842 842 842 843 843 843 843 843 844 844 845 845 845 846 846 846 845 846 846 846 847 847 848 848 849 849 849 849 849 849 849 849 849 849 849 848 848 848 848 847 847 847 847 847 847 846 846 847 847 847 848 849 849 849 850 850 850 850 850 850 850 849 849 848 849 849 849 849 849 849
834 835 836 836 837 837 839 838 840 840 840 841 841 842 842 843 843 844 844 844 844 844 844 845 845 846 846 846 847 847 847 847 847 847 848 849 849 850 850 850 850 851 851 851 850 850 850 850 850 850 850 850 849 849 849 849 848 848 848 848 848 848 848 849 849 849 850 850 850 851 851 851 852 852 851 851 850 850 850 849 849 850 850 850 849
835 836 836 837 838 838 839 839 840 840 841 841 842 843 843 844 844 845 845 845 845 845 845 846 847 847 847 847 847 847 848 848 848 849 849 850 851 851 851 852 852 852 852 852 851 851 851 851 851 851 851 851 850 850 850 850 850 850 849 849 849 849 850 850 851 851 851 851 851 851 852 853 853 853 853 853 852 851 851 851 850 850 850 850 850
835 836 836 837 838 839 839 840 840 841 842 842 843 843 844 845 845 846 846 846 846 846 847 847 848 848 848 848 848 849 849 849 850 850 851 852 852 852 853 853 853 853 853 853 853 853 853 853 852 852 852 852 851 851 851 851 851 851 850 851 851 851 851 852 852 852 852 852 852 853 853 854 854 854 854 854 853 852 852 852 852 851 851 851 851
836 836 837 838 839 840 840 840 841 841 842 843 843 844 845 845 845 846 846 847 847 847 848 849 849 849 849 849 850 850 850 851 851 852 852 853 853 854 854 854 854 854 854 854 854 854 854 854 854 853 853 853 852 852 852 852 852 852 852 852 852 853 853 853 853 853 853 853 854 855 855 855 855 856 855 855 854 854 853 853 852 852 852 852 852
837 837 838 839 840 840 841 841 841 842 842 843 843 844 845 845 846 846 847 847 848 849 849 850 850 850 850 851 851 851 852 852 852 853 853 854 854 855 855 855 856 855 856 856 855 855 855 855 855 855 854 854 853 853 853 854 854 854 853 853 853 854 854 854 854 854 854 854 855 856 856 856 856 857 856 856 855 855 854 854 853 853 853 853 852
837 838 839 839 841 841 841 842 842 842 843 843 844 845 845 845 846 847 848 848 849 850 850 850 850 851 852 852 852 853 853 853 853 854 854 855 855 856 856 857 857 857 857 857 856 856 856 856 856 855 855 855 855 855 855 855 855 855 855 855 855 855 855 855 855 855 855 855 856 857 857 857 857 857 857 857 856 855 855 855 854 854 853 853 853
837 838 839 840 840 841 841 842 842 843 843 844 844 845 846 846 847 848 849 849 850 850 851 851 851 852 853 853 853 853 854 854 855 855 856 856 856 857 857 858 858 858 858 858 858 857 857 857 857 856 856 856 856 856 856 856 856 856 856 856 856 856 856 856 856 856 856 857 857 857 857 858 858 858 858 857 857 856 855 855 855 855 854 854 854
837 838 839 840 840 841 841 842 843 843 844 845 845 846 847 847 848 849 850 850 850 851 851 852 853 853 854 854 854 854 855 856 856 856 857 857 858 858 858 858 858 858 858 859 858 858 859 858 858 858 857 857 857 857 857 857 857 857 857 857 857 857 857 856 856 856 857 858 858 858 858 858 859 859 859 858 857 856 856 856 856 856 855 855 855
837 838 839 840 840 841 842 843 843 844 845 845 846 847 848 848 849 849 850 851 851 852 852 853 853 854 855 855 855 856 856 857 857 857 858 858 859 859 859 859 859 859 859 859 859 860 860 859 859 859 859 858 858 858 858 858 858 858 858 858 858 858 858 857 857 857 859 859 859 859 858 858 859 859 859 858 858 857 857 856 856 856 856 856 856
837 838 839 840 840 841 842 843 843 844 845 846 847 847 848 849 849 850 851 851 852 852 853 853 854 854 855 856 856 856 857 857 858 858 859 859 859 860 860 860 860 860 860 860 860 861 860 860 860 860 860 859 859 859 859 859 859 859 859 859 859 859 858 858 858 859 860 860 860 860 860 859 859 860 859 859 858 858 857 857 857 857 857 856 856
836 838 839 839 840 841 842 843 844 845 845 846 847 848 849 849 850 851 851 852 852 853 854 854 855 855 855 856 856 857 857 858 858 859 859 860 860 860 860 861 861 861 861 861 861 861 861 861 861 861 860 860 860 860 860 860 860 860 860 860 859 860 859 859 859 860 860 860 861 860 860 860 860 860 860 860 859 858 858 858 858 857 857 857 857
836 838 838 839 839 841 842 843 844 845 846 847 848 848 849 850 851 851 852 852 853 854 854 855 855 855 856 856 856 857 858 858 859 859 860 860 861 861 861 861 861 861 861 861 862 861 861 861 861 861 861 861 861 861 861 861 861 861 861 860 860 860 860 860 861 861 861 861 861 861 861 861 861 860 860 860 859 859 858 858 858 858 858 858 858
836 837 838 839 840 841 842 843 844 845 846 847 848 848 849 850 851 852 853 853 853 854 854 855 855 856 856 857 857 858 858 859 860 860 860 861 861 861 861 861 861 862 862 862 862 862 862 862 862 862 862 862 862 862 862 862 862 862 861 861 861 861 860 861 862 862 862 862 862 862 861 861 861 861 861 860 859 859 859 859 859 858 858 858 859
836 837 839 839 840 841 842 843 844 845 846 847 848 849 849 850 851 852 853 853 854 854 855 855 855 856 856 857 858 858 859 859 860 860 860 861 861 861 861 862 861 862 862 862 862 862 863 862 863 863 863 863 863 863 863 863 862 862 862 862 862 861 861 861 862 862 862 863 863 862 862 862 861 861 861 860 860 860 859 859 859 859 859 859 859
837 838 839 839 840 841 842 843 844 845 846 847 848 849 850 850 851 852 853 854 854 855 855 855 856 856 857 857 858 858 859 859 860 860 860 861 861 861 862 862 862 862 862 863 863 863 863 863 864 863 863 863 863 863 863 863 863 863 863 863 862 862 862 861 863 863 863 863 863 863 862 862 862 862 862 861 860 860 860 860 860 860 860 860 860
837 838 839 840 840 841 842 843 843 845 846 847 848 849 850 850 851 852 853 854 854 855 856 856 856 857 857 858 858 858 859 859 860 860 861 861 861 862 862 862 862 863 863 863 864 864 864 864 864 864 864 864 864 864 864 864 864 864 863 863 863 863 862 862 863 863 863 863 863 863 862 862 862 862 862 862 861 861 861 860 860 860 860 860 860
837 838 839 840 840 841 842 843 843 845 846 846 848 849 849 850 851 852 853 854 854 855 855 856 856 857 857 857 858 858 859 859 860 860 860 861 861 862 862 862 863 863 863 863 864 864 865 864 864 864 864 864 864 864 864 864 864 864 864 864 863 863 863 863 863 864 864 864 864 863 862 862 862 862 863 862 862 861 861 861 860 860 861 861 860
838 838 839 840 840 841 842 843 843 844 846 846 847 848 849 850 851 852 853 853 854 855 855 855 856 856 856 857 858 858 858 859 859 860 860 861 861 862 862 862 863 863 863 864 864 864 864 865 865 865 864 865 865 865 865 865 865 864 864 864 864 863 863 863 864 864 864 864 864 863 862 863 862 862 863 862 862 862 861 861 861 861 861 861 861
837 838 839 839 840 841 841 843 843 844 845 846 847 847 848 849 850 851 852 853 853 854 854 855 856 856 856 857 857 857 858 858 859 859 860 860 861 861 862 862 863 863 863 864 864 864 864 864 865 865 865 865 865 865 865 865 865 865 865 864 864 863 864 864 864 864 864 864 864 863 862 863 862 862 863 862 862 862 861 861 861 861 861 861 861
837 837 838 839 839 840 841 842 843 844 845 846 847 847 847 848 850 850 851 852 853 853 854 855 855 856 856 856 857 857 858 858 859 859 859 860 860 861 861 862 862 863 863 863 864 864 864 864 865 864 864 865 865 865 865 865 865 865 865 864 864 864 864 865 865 864 864 864 863 862 862 862 862 862 863 862 862 862 861 861 862 862 862 862 862
835 836 837 838 839 840 841 842 842 844 845 845 846 847 847 848 849 850 851 852 852 853 854 854 855 855 856 856 857 858 858 858 858 858 859 859 860 860 861 862 862 862 863 863 863 864 864 864 864 864 864 865 865 865 865 865 865 866 865 864 864 864 865 865 864 864 864 864 863 862 862 862 862 862 863 862 862 862 862 862 862 862 862 862 862
833 835 836 837 838 839 840 841 842 843 844 845 846 847 847 847 849 849 850 851 851 852 853 854 854 855 855 856 857 857 858 858 858 857 858 858 859 860 860 861 861 862 862 862 863 863 863 864 864 864 864 865 865 866 866 865 865 865 865 864 864 865 865 865 865 864 864 864 863 862 862 862 862 862 862 862 862 862 862 862 862 863 862 862 862
831 833 834 836 837 838 839 840 841 842 843 844 845 846 846 847 848 849 850 850 850 851 852 853 853 854 854 855 856 857 857 857 857 857 857 858 858 859 860 860 861 861 862 862 862 863 863 863 863 864 864 865 865 866 866 866 865 865 865 865 865 865 865 864 864 864 864 863 862 862 862 862 862 861 862 862 862 862 862 862 862 863 863 862 862
829 831 832 834 835 837 838 839 841 841 842 843 844 845 846 846 847 848 849 849 850 850 851 852 852 853 853 854 855 855 856 856 856 856 857 857 858 858 859 859 860 860 861 861 862 862 862 862 863 863 864 864 865 865 865 865 865 865 865 865 865 864 864 864 864 864 864 863 862 862 862 861 861 861 861 862 862 862 862 862 862 862 862 862 862
828 829 830 832 833 835 836 838 839 840 841 842 843 844 845 845 846 847 847 848 849 849 850 850 851 851 852 852 853 854 854 854 855 855 856 857 857 858 858 859 860 860 860 860 861 862 862 862 862 862 863 864 864 865 864 864 864 864 864 864 864 864 864 864 863 863 863 863 862 862 861 861 861 861 861 862 862 862 862 862 862 862 862 862 862
827 828 829 830 831 833 834 836 837 838 840 841 842 843 843 844 845 845 846 847 847 848 848 849 849 850 850 851 851 852 852 853 853 853 854 855 856 856 857 858 858 859 859 859 860 860 861 861 861 862 862 863 863 863 864 864 864 863 864 863 863 863 863 863 863 863 863 862 861 861 861 861 861 861 861 861 861 861 861 861 862 862 862 862 862
825 826 828 829 830 831 833 834 835 836 838 839 840 841 842 843 844 844 845 846 846 847 847 847 848 848 849 850 850 851 851 851 852 852 853 853 854 855 856 856 857 857 858 858 858 859 859 860 860 861 861 862 862 862 863 863 863 862 862 862 862 862 862 862 862 862 862 862 861 861 861 861 860 861 861 861 861 861 861 861 861 861 862 862 862
823 824 826 827 828 830 831 832 834 835 836 837 838 839 840 841 842 843 844 844 845 846 846 846 847 847 848 848 849 849 850 850 850 851 852 852 853 854 854 855 855 856 856 857 857 857 858 858 859 860 860 861 861 861 861 861 861 861 861 861 861 861 861 861 861 861 861 861 861 860 860 860 860 860 860 860 860 860 860 860 860 861 862 862 862
821 822 824 825 826 827 829 830 832 833 835 836 836 837 838 839 840 841 842 843 843 844 845 846 846 847 847 847 848 848 848 849 849 850 850 851 851 852 853 853 854 854 854 855 855 856 856 857 858 858 859 859 860 860 860 860 860 860 860 860 860 860 860 860 860 860 860 860 860 860 859 859 859 859 859 859 859 859 859 860 860 860 861 862 862
819 820 821 822 824 825 826 828 830 831 833 834 834 835 836 837 838 839 840 841 841 842 843 844 844 845 845 846 847 847 847 848 848 849 849 849 850 850 851 851 852 852 853 853 854 854 854 855 856 857 857 858 858 859 859 859 859 859 859 859 859 859 859 859 859 859 859 859 859 859 858 858 858 857 857 857 857 858 858 859 859 859 860 861 861
816 817 818 820 821 822 823 825 827 828 830 831 832 833 834 835 836 837 837 838 839 840 841 841 842 842 843 844 845 845 846 846 847 847 847 848 848 848 849 849 850 850 851 851 852 852 852 853 854 855 856 856 857 857 857 857 857 858 857 858 858 858 858 858 858 858 858 858 858 858 858 857 856 856 856 855 856 857 857 858 859 859 860 861 861
813 814 816 817 818 819 821 822 824 825 826 828 829 831 832 833 834 834 835 836 837 838 838 839 839 840 841 842 842 843 844 845 845 845 846 846 846 846 847 847 847 848 849 849 849 850 850 851 852 852 853 854 855 855 856 856 856 856 856 856 856 856 856 856 856 856 857 857 857 857 857 856 855 855 854 854 854 855 856 857 858 858 859 860 860
810 812 813 814 815 816 817 819 820 821 823 824 826 827 829 830 831 832 833 834 834 835 836 837 837 838 839 839 840 841 841 842 843 843 844 844 844 844 844 845 845 846 847 847 847 848 849 849 850 850 851 852 853 853 854 854 854 854 854 854 854 855 855 855 855 855 855 856 856 856 855 855 855 854 853 853 853 854 855 856 857 857 857 858 859
808 809 810 811 812 813 814 815 816 818 819 821 822 824 825 827 828 829 830 831 832 832 833 834 835 835 836 836 836 838 838 840 840 841 841 842 842 842 842 843 843 844 845 845 845 846 847 847 848 848 849 850 850 851 851 852 852 852 852 852 853 853 853 853 853 854 854 854 854 854 854 854 854 853 853 852 852 853 854 855 856 856 856 857 857
804 805 807 808 810 810 811 812 813 814 816 817 818 820 822 823 825 825 827 828 829 829 830 831 832 832 833 833 833 834 835 836 837 838 839 839 839 840 840 840 841 842 842 842 843 844 844 845 845 846 847 847 848 849 849 849 850 850 850 851 851 851 851 852 852 852 852 852 853 852 852 852 852 852 852 852 852 852 853 854 854 855 855 855 856
801 803 804 805 806 807 808 809 810 811 813 814 815 817 818 820 821 822 823 824 825 826 827 828 829 829 829 829 829 830 831 832 833 835 836 837 837 837 838 838 839 840 840 840 841 841 842 842 843 843 844 845 846 846 847 847 848 848 849 849 849 850 850 850 850 850 850 851 851 850 851 851 851 850 850 851 851 850 851 852 852 853 853 853 854
799 800 801 802 803 804 805 805 807 808 810 811 813 814 815 817 818 819 820 821 822 823 824 825 825 825 825 825 826 827 828 828 830 831 833 834 834 835 836 836 837 837 837 838 838 839 839 840 841 841 842 842 843 844 844 845 845 846 846 847 847 848 848 848 848 848 848 848 848 848 849 849 849 848 848 849 849 849 849 850 850 851 851 851 851
796 797 798 799 800 801 802 803 804 805 807 808 810 812 813 814 815 816 817 818 819 819 820 821 821 821 821 821 823 823 824 825 826 827 829 830 831 832 833 834 834 834 835 835 836 836 837 837 838 839 839 840 841 841 842 843 843 844 844 845 845 846 846 846 846 846 846 846 846 846 846 846 846 846 846 847 848 848 847 847 848 848 848 849 849
793 794 794 796 796 798 799 800 801 802 804 806 807 808 810 811 812 813 814 814 815 816 816 817 817 818 817 818 819 820 820 821 822 824 825 827 828 829 830 830 831 831 832 832 832 833 834 835 835 836 837 838 838 839 840 841 841 842 842 843 843 843 844 844 844 844 844 844 844 844 844 844 843 843 844 844 845 846 845 845 845 846 846 846 846
789 791 791 792 792 793 795 795 797 799 801 802 802 803 804 805 807 808 809 810 811 812 812 813 814 814 814 815 815 816 816 817 818 820 822 823 824 825 826 827 827 828 828 828 829 830 831 832 832 834 835 835 835 836 837 839 839 840 840 840 841 841 841 841 841 841 841 841 841 841 842 842 841 840 841 842 842 843 843 843 843 843 843 843 843
785 786 787 788 789 789 791 792 793 794 795 797 798 798 798 798 799 801 803 805 806 806 807 808 809 810 810 811 812 812 813 814 815 816 818 819 820 821 822 822 823 824 824 825 826 827 828 829 829 830 831 832 832 833 834 836 837 838 838 838 838 837 837 838 838 838 838 838 838 839 839 839 839 838 838 839 839 839 840 840 840 840 840 840 839
781 782 783 784 785 786 787 788 789 790 790 792 793 794 794 794 795 796 798 799 801 801 802 803 805 805 806 807 808 808 809 810 811 812 813 814 815 816 817 819 820 820 821 822 823 824 824 825 825 827 828 829 830 831 831 832 833 836 837 837 835 834 834 834 835 835 835 835 835 836 836 837 836 835 835 835 836 836 836 837 837 837 837 836 835
777 778 779 780 781 782 782 784 785 785 786 787 788 790 792 793 794 795 796 797 798 799 799 800 801 801 802 803 804 805 805 806 808 809 809 810 811 812 814 816 816 817 818 818 819 820 820 821 822 823 825 826 826 827 828 829 830 832 834 834 833 834 832 831 830 830 830 832 832 833 834 834 834 833 832 832 832 832 833 833 833 833 833 832 832
772 773 775 776 777 777 778 779 780 781 782 782 784 787 789 791 792 794 795 795 796 797 796 796 796 797 798 798 799 800 801 802 804 805 806 807 808 810 811 812 813 815 815 815 815 816 817 818 818 819 820 822 823 824 825 826 827 828 829 829 831 832 830 827 827 826 826 828 828 829 830 831 831 830 829 829 829 829 829 829 829 829 829 829 829
767 769 770 772 772 773 774 775 776 777 778 779 780 783 785 786 788 789 790 790 790 790 789 789 790 791 791 792 794 795 796 797 799 801 802 804 805 806 808 809 810 811 812 812 813 813 813 814 815 816 816 818 820 821 821 822 823 824 825 825 826 826 825 824 825 824 824 825 825 826 827 827 828 827 826 825 825 825 825 825 825 825 825 826 826
764 765 766 768 769 770 771 771 772 773 774 775 777 778 779 781 782 782 783 783 783 783 782 784 785 785 786 787 789 790 791 793 794 796 798 799 801 802 804 805 807 808 808 809 809 810 810 811 812 812 813 814 816 817 817 819 820 821 822 822 822 822 822 823 822 822 822 822 822 823 823 824 824 824 822 822 822 822 821 821 821 821 822 822 823
761 762 762 764 765 766 767 768 769 769 770 771 772 773 774 775 777 777 778 778 778 779 780 782 783 783 784 784 785 786 787 788 789 791 793 795 797 798 800 801 802 804 805 805 806 806 807 808 809 809 810 811 811 812 813 815 815 816 818 819 819 819 820 820 820 820 820 819 819 820 821 821 821 820 819 818 817 818 818 817 817 818 818 819 820
758 759 759 760 761 762 764 765 765 766 767 767 768 769 769 771 772 773 773 773 774 776 778 779 780 780 781 781 782 783 784 785 786 786 788 789 791 793 795 797 798 799 801 801 802 803 804 805 806 806 807 807 807 808 809 810 811 812 813 815 816 817 817 817 818 818 817 817 816 816 816 818 817 816 815 814 813 813 814 814 814 814 815 816 817
756 757 757 758 759 759 760 761 761 762 763 763 764 764 765 767 768 767 768 769 771 773 775 775 776 776 777 778 779 780 781 782 782 783 784 785 786 788 790 791 793 795 796 798 799 800 800 801 802 803 803 803 803 804 804 805 806 807 808 809 811 812 813 813 813 813 814 814 812 811 811 813 812 810 810 810 809 809 810 810 811 811 811 812 813
753 754 754 755 755 756 756 757 757 758 759 760 760 760 761 762 762 763 763 765 766 769 770 770 771 772 773 774 775 776 778 779 779 780 781 781 783 784 785 787 788 790 792 793 794 795 796 797 799 799 800 800 800 800 801 801 802 803 803 804 804 805 806 806 806 808 808 809 809 808 808 808 807 805 804 805 805 806 806 807 807 807 807 808 809